Weather History for MMDO - January, 2013

Change the Weather History Date:

Friday, January 18, 2013

  Actual Average Record
Temperature  
Mean Temperature 46 °F -  
Max Temperature 64 °F 71 °F - (-1)
Min Temperature 28 °F 35 °F - (-1)
Degree Days  
Heating Degree Days 19    
Moisture  
Dew Point 12 °F    
Average Humidity 25    
Maximum Humidity 46    
Minimum Humidity 13    
Precipitation  
Precipitation 0.00 in - - ()
Sea Level Pressure  
Sea Level Pressure 30.32 in    
Wind  
Wind Speed 1 mph ()    
Max Wind Speed 6 mph    
Max Gust Speed -    
Visibility 12.0 miles    
Events      
Averages and records for this station are not official NWS values.
T = Trace of Precipitation, MM = Missing Value Source: Averaged Metar Reports

Daily Weather History Graph

Daily Weather History Graph

Search for Another Location

Airport or City:

Trip Planner

Search our weather history database for the weather conditions in past years. The results will help you decide how hot, cold, wet, or windy it might be!

Date:

Astronomy

Jan. 18, 2013 Rise Set
Actual Time 7:43 AM CST 6:34 PM CST
Civil Twilight 7:18 AM CST 6:58 PM CST
Nautical Twilight 6:51 AM CST 7:26 PM CST
Astronomical Twilight 6:23 AM CST 7:53 PM CST
Moon 12:16 PM CST (1/18) 12:36 AM CST (1/18)
Length of Visible Light 11h 39m
Length of Day
10h 51m
Waxing Crescent, 47% of the Moon is Illuminated
Jan 18
Waxing Crescent
Jan 18
First Quarter
Jan 26
Full
Feb 3
Last Quarter
Feb 10
New

Hourly Weather History & Observations

Time (CST) Temp. Windchill Dew Point Humidity Pressure Visibility Wind Dir Wind Speed Gust Speed Precip Events Conditions
2:55 AM 36 °F - 16 °F 31% 30.29 in 6 mi Calm Calm - -   Clear
5:50 AM 31 °F - 16 °F 40% 30.33 in 6 mi Calm Calm - -   Clear
6:11 AM 23.0 °F 18.4 °F 5.0 °F 46% 30.09 in 8.0 mi NNW 3.5 mph - N/A   Scattered Clouds
6:48 AM 23.0 °F - 3.2 °F 43% 30.42 in 8.0 mi Calm Calm - N/A   Scattered Clouds
7:47 AM 23.0 °F - 3.2 °F 43% 30.44 in 14.0 mi Calm Calm - N/A   Mostly Cloudy
8:44 AM 26.6 °F - 5.0 °F 40% 30.50 in 14.0 mi Calm Calm - N/A   Mostly Cloudy
8:50 AM 33 °F - 15 °F 33% 30.45 in 19 mi Calm Calm - -   Partly Cloudy
9:41 AM 41.0 °F - 5.0 °F 23% 30.46 in 14.0 mi Calm Calm - N/A   Scattered Clouds
10:44 AM 46.4 °F - 5.0 °F 18% 30.46 in 14.0 mi Calm Calm - N/A   Mostly Cloudy
11:45 AM 49 °F - 21 °F 20% 30.43 in 19 mi Calm Calm - -   Overcast
11:50 AM 48.2 °F - 8.6 °F 20% 30.36 in 14.0 mi West 3.5 mph - N/A   Overcast
12:40 PM 50.0 °F - 8.6 °F 19% 30.40 in 14.0 mi NNW 3.5 mph - N/A   Overcast
1:48 PM 53.6 °F - 10.4 °F 18% 30.34 in 14.0 mi ENE 3.5 mph - N/A   Mostly Cloudy
2:40 PM 59 °F - 25 °F 16% 30.24 in 22 mi SE 2.2 mph - -   Partly Cloudy
2:45 PM 59.0 °F - 8.6 °F 14% 30.17 in 14.0 mi NNW 4.6 mph - N/A   Mostly Cloudy
3:42 PM 60.8 °F - 8.6 °F 13% 30.28 in 14.0 mi North 3.5 mph - N/A   Mostly Cloudy
5:50 PM 58 °F - 21 °F 13% 30.14 in 19 mi SSE 2.2 mph - -   Overcast
6:47 PM 57.2 °F - 10.4 °F 16% 30.31 in 12.0 mi South 5.8 mph - N/A   Overcast
7:40 PM 53.6 °F - 12.2 °F 19% 30.33 in 10.0 mi West 4.6 mph - N/A   Mostly Cloudy
8:41 PM 53.6 °F - 12.2 °F 19% 30.33 in 10.0 mi North 4.6 mph - N/A   Overcast
8:55 PM 53 °F - 23 °F 19% 30.13 in 6 mi Calm Calm - -   Mostly Cloudy
9:40 PM 51.8 °F - 12.2 °F 21% 30.37 in 10.0 mi Calm Calm - N/A   Mostly Cloudy
11:45 PM 48 °F - 22 °F 23% 30.10 in 6 mi Calm Calm - -   Scattered Clouds